User: anonymous   Login
Location: Unspecified
(0.0000°N, 0.0000°E)
Time: 02:58:43
(UTC+00:00)
Language:

ELECTRON R/B - Orbit

View from above orbital plane
View from above orbital plane
View from above satellite
View from above satellite

Ground track
Ground track

The orbit data is extracted from the following two-line orbital elements,

1 43166U 18010D   18053.56056720 +.00024756 -10787-5 +19478-3 0  9993
2 43166 082.9197 107.3576 0166683 103.0828 258.9083 15.54827610005042
Epoch (UTC): 22 February 2018 13:27:13
Eccentricity: 0.0166683
inclination: 82.9197°
perigee height: 289 km
apogee height: 515 km
right ascension of ascending node: 107.3576°
argument of perigee: 103.0828°
revolutions per day: 15.54827610
mean anomaly at epoch: 258.9083°
orbit number at epoch: 504

The dashed part of the orbit path shows where the satellite is in the earth's shadow,  

DLR